PDT,Max TemperatureF,Mean TemperatureF,Min TemperatureF,Max Dew PointF,MeanDew PointF,Min DewpointF,Max Humidity, Mean Humidity, Min Humidity, Max Sea Level PressureIn, Mean Sea Level PressureIn, Min Sea Level PressureIn, Max VisibilityMiles, Mean VisibilityMiles, Min VisibilityMiles, Max Wind SpeedMPH, Mean Wind SpeedMPH, Max Gust SpeedMPH,PrecipitationIn, CloudCover, Events, WindDirDegrees
2013-6-1,93,76,59,54,45,30,67,35,11,29.90,29.82,29.73,10,10,8,9,5,,0.00,0,,245
2013-6-2,95,78,62,54,48,39,63,39,14,29.73,29.69,29.60,10,10,8,10,5,,0.00,0,,183
2013-6-3,91,75,59,54,50,43,72,48,18,29.79,29.72,29.66,10,9,7,15,8,21,0.00,0,Rain,170
2013-6-4,82,68,55,54,50,48,82,57,32,29.89,29.84,29.78,10,10,9,16,12,20,0.00,0,,158
2013-6-5,86,70,53,55,51,48,88,58,35,29.98,29.91,29.83,10,10,9,15,11,21,0.00,0,,167
2013-6-6,93,74,55,57,53,50,82,56,28,29.92,29.86,29.77,10,10,9,14,9,,0.00,0,,172
2013-6-7,102,80,59,64,57,50,82,49,17,29.86,29.77,29.67,10,10,8,12,7,20,0.00,0,,270
2013-6-8,105,86,68,63,57,54,68,40,20,29.72,29.67,29.61,10,10,9,15,6,22,0.00,0,,300
2013-6-9,82,71,60,54,53,50,77,57,37,29.85,29.77,29.70,10,10,9,21,16,28,0.00,0,,167
2013-6-10,71,64,57,54,51,50,82,62,46,29.95,29.89,29.81,10,10,4,18,12,25,0.00,1,,195
2013-6-11,84,70,55,54,50,45,82,53,25,29.98,29.92,29.86,10,10,9,13,5,17,0.00,0,,193
2013-6-12,87,72,57,54,47,37,72,45,18,29.95,29.90,29.87,10,9,7,14,8,20,0.00,0,,182
2013-6-13,84,70,55,46,40,25,67,39,11,30.07,30.01,29.94,10,10,8,13,7,21,0.00,0,,359
2013-6-14,87,71,55,48,40,18,72,36,8,29.97,29.87,29.79,10,10,8,13,5,20,0.00,0,,294
2013-6-15,89,73,57,50,43,34,59,38,14,29.93,29.86,29.80,10,10,8,15,9,18,0.00,0,,175
2013-6-16,91,74,57,48,46,39,72,43,17,30.03,29.99,29.93,10,10,7,14,8,16,0.00,0,,183
2013-6-17,89,73,57,52,48,39,72,47,17,30.05,30.00,29.94,10,10,7,18,10,23,0.00,0,,170
2013-6-18,80,68,55,52,48,43,82,56,26,29.99,29.95,29.89,10,10,10,20,12,25,0.00,0,,164
2013-6-19,78,64,51,48,41,25,82,46,14,30.05,30.00,29.96,10,10,9,12,8,20,0.00,0,,228
2013-6-20,84,70,55,48,44,28,77,45,13,29.98,29.94,29.89,10,10,9,16,6,18,0.00,0,,216
2013-6-21,86,70,53,48,44,28,77,40,12,29.95,29.92,29.86,10,10,8,12,6,17,0.00,0,,290
2013-6-22,93,75,57,50,44,34,72,36,13,29.91,29.85,29.78,10,10,8,16,6,18,0.00,0,,248
2013-6-23,78,68,59,59,54,46,82,64,41,29.85,29.80,29.78,10,10,8,17,12,24,0.00,1,Rain,172
2013-6-24,69,64,60,63,57,54,94,80,60,29.93,29.87,29.79,10,8,1,14,10,18,0.00,5,Rain,178
2013-6-25,75,68,62,66,63,61,100,85,65,30.00,29.95,29.90,10,8,1,14,7,17,0.00,6,Rain,171
2013-6-26,87,74,62,63,60,52,94,64,31,30.04,30.00,29.96,10,10,9,13,7,17,0.00,0,,182
2013-6-27,95,78,62,59,55,39,88,50,14,30.07,30.03,29.97,10,10,9,9,6,,0.00,0,,226
2013-6-28,102,84,66,61,57,50,78,42,17,30.00,29.93,29.84,10,10,8,12,4,18,0.00,0,,217
2013-6-29,104,88,71,64,55,41,60,35,12,29.89,29.83,29.74,10,10,7,14,6,16,0.00,0,,258
2013-6-30,105,88,71,59,55,46,60,36,14,29.81,29.76,29.70,10,10,9,12,6,16,0.00,0,,177